Location: Colombes
(48.9188°N, 2.2540°E)
Time: 08:53:06
(UTC+00:00)

Daily predictions for brighter satellites

Satellite Brightness Start Highest point End
(mag) Time Altitude Azimuth Time Altitude Azimuth Time Altitude Azimuth
Cosmos 2084 Rocket 3.4 16:37:08 10° SW 16:41:18 85° SE 16:45:32 10° NE
Cosmos 2100 Rocket 4.4 16:37:15 10° SSW 16:43:23 67° WNW 16:49:31 10° N
ATLAS CENTAUR R/B 2.6 16:40:52 10° W 16:43:52 27° NW 16:46:52 10° NNE
Cosmos 1441 Rocket 3.2 16:42:37 10° NNW 16:45:58 72° W 16:49:18 10° S
SAR-Lupe-4 4.0 16:43:01 10° SE 16:46:22 39° ENE 16:49:44 10° N
Cosmos 2221 Rocket 4.3 16:42:11 10° NNW 16:46:36 59° W 16:50:57 10° S
Cosmos 1833 Rocket 2.9 16:41:05 10° NNW 16:46:46 82° WSW 16:52:25 10° SSE
ARIANE 5 R/B 2.7 16:42:18 10° SE 16:47:03 47° ENE 16:51:51 10° N
USA 215 3.3 16:48:10 10° ESE 16:54:44 88° SW 17:01:19 10° NW
Timation 1 Rocket 4.5 16:49:15 10° NNW 16:55:06 52° NE 17:00:55 10° SE
IRS-P3 4.4 16:52:49 10° SE 16:57:50 44° ENE 17:02:53 10° N
MOS 1 Rocket 3.8 16:56:09 10° SE 16:59:59 31° ENE 17:03:59 10° N
ATLAS 5 CENTAUR R/B 2.3 16:56:10 10° NW 17:00:29 63° SW 17:05:50 10° SSE
Cosmos 1484 Rocket 4.0 17:00:38 10° S 17:03:57 42° W 17:07:20 10° NNW
Iridium 4 Rocket 4.3 17:01:14 10° SSW 17:06:08 51° W 17:10:40 10° N
Resurs 01 Rocket 3.7 17:08:57 10° NE 17:08:57 10° NE 17:09:03 10° NE
Cosmos 2233 Rocket 4.0 17:02:10 10° S 17:08:28 85° E 17:14:50 10° N
RESURS DK-1 2.3 17:05:19 10° NNW 17:09:17 57° ENE 17:13:13 10° SE
Cosmos 407 Rocket 3.8 17:04:33 10° S 17:09:29 47° ESE 17:14:24 10° NNE
Cosmos 1725 Rocket 4.4 17:03:15 10° SSW 17:09:30 69° WNW 17:15:49 10° N
Cosmos 1602 4.3 17:07:07 10° NNE 17:09:37 22° ENE 17:12:05 10° SE
Cosmos 2061 Rocket 4.0 17:04:41 10° S 17:10:58 80° E 17:17:14 10° N
ISS -3.2 17:11:50 10° SW 17:15:02 44° SSE 17:17:12 18° E
Cosmos 1782 Rocket 3.7 17:10:49 10° SSW 17:15:15 78° W 17:19:42 10° N
CZ-2D R/B 2.6 17:13:04 10° SSE 17:16:12 72° ENE 17:19:21 10° N
Cosmos 1869 3.2 17:13:37 10° S 17:17:01 47° E 17:20:24 10° NNE
ERS-1 4.5 17:13:05 10° SSE 17:18:12 72° ENE 17:23:18 10° NNW
USA 281 4.4 17:15:06 14° ENE 17:18:45 21° NE 17:23:29 10° N
SPOT 1/Viking Rocket 4.0 17:14:15 10° SE 17:19:00 39° ENE 17:23:50 10° N
Cosmos 1300 Rocket 4.0 17:15:06 10° SSW 17:19:27 63° WNW 17:23:49 10° N
COSMO-SKYMED 1 3.7 17:21:26 18° ENE 17:22:45 20° E 17:25:50 10° SE
SJ-12 3.6 17:19:13 10° SSE 17:23:00 84° E 17:26:49 10° NNW
Cosmos 1464 Rocket 4.5 17:18:51 10° SSE 17:24:30 36° E 17:30:07 10° NNE
AQUARIUS 4.0 17:22:25 10° SSE 17:26:49 74° ENE 17:31:14 10° N
SL-12 R/B(2) 4.4 17:19:31 10° SSW 17:27:21 67° ESE 17:36:55 10° NE
BREEZE-M DEB (TANK) 2.3 17:26:56 10° SW 17:29:20 58° SSE 17:32:21 20° E
Cosmos 540 Rocket 3.4 17:24:12 10° NNW 17:29:22 80° ENE 17:34:28 10° SSE
Cosmos 1400 Rocket 3.8 17:28:01 10° SE 17:31:03 23° E 17:31:12 23° E
Cosmos 1975 Rocket 3.5 17:28:24 10° NNW 17:32:43 63° W 17:37:02 10° S
Spot 4 Rocket 4.3 17:28:00 10° SE 17:32:48 44° ENE 17:37:38 10° N
Cosmos 1763 Rocket 3.6 17:29:36 10° NNW 17:34:50 80° WSW 17:39:58 10° SSE
Cosmos 1812 2.1 17:33:34 10° S 17:36:23 48° E 17:37:34 28° NE
Cosmos 1140 Rocket 4.2 17:36:21 10° SW 17:41:25 54° WNW 17:46:29 10° NNE
Cosmos 2151 Rocket 4.0 17:37:27 10° SSE 17:41:38 40° E 17:45:29 12° NNE
Cosmos 2058 2.7 17:38:50 10° N 17:42:46 60° ENE 17:46:42 10° SSE
SMAP 4.2 17:38:27 10° S 17:42:57 48° W 17:47:27 10° NNW
Cosmos 44 Rocket 3.3 17:39:31 10° SSW 17:44:13 60° ESE 17:47:07 23° NE
Cosmos 1943 Rocket 2.1 17:43:37 10° SSW 17:49:13 81° ESE 17:54:09 14° NNE
SKYMED 2 3.6 17:45:23 10° NNE 17:49:35 53° E 17:53:49 10° S
Helios 1A Rocket 3.4 17:51:57 30° SE 17:51:57 30° SE 17:54:16 10° SSE
Okean 1 Rocket 3.7 17:47:38 10° SSE 17:51:33 32° E 17:51:43 32° E
CZ-2D R/B 3.3 17:47:43 10° SSE 17:51:50 68° ENE 17:56:02 10° N
SJ-7 4.2 17:48:16 10° SSE 17:51:51 51° ENE 17:55:26 10° N
IRAS Rocket 4.2 17:46:49 10° SSE 17:52:18 64° ENE 17:57:47 10° NNW
Sich 1 Rocket 4.2 17:48:29 10° SSE 17:52:36 35° E 17:53:29 32° ENE
PSLV R/B 3.5 17:49:31 10° SE 17:53:26 49° ENE 17:57:20 10° N
Cosmos 2082 Rocket 2.1 17:47:52 10° NNW 17:53:32 79° ENE 17:59:08 10° SSE
Cosmos 1072 Rocket 4.4 17:51:30 10° S 17:57:34 67° E 18:03:38 10° NNE
Cosmos 2026 Rocket 4.3 17:52:13 10° N 17:57:53 39° ENE 18:03:34 10° SE
Cosmos 2278 Rocket 2.1 17:52:21 10° SSW 17:58:00 89° ESE 18:02:47 15° NNE
NOAA 6 4.2 17:55:16 10° SE 18:00:12 49° ENE 18:05:09 10° N
BREEZE-M DEB (TANK) 3.2 17:58:18 10° SW 18:01:04 61° SSE 18:03:16 33° E
Aureole 3 Rocket 2.4 17:58:05 10° SSW 18:01:05 72° W 18:03:11 19° N
BREEZE-M DEB (TANK) 2.9 17:59:27 10° WSW 18:02:00 89° WNW 18:04:09 33° ENE
SL-16 R/B 4.2 18:00:12 10° N 18:05:34 31° WNW 18:10:56 10° WSW
Geosat 4.1 18:04:10 32° ESE 18:06:07 50° NE 18:10:58 10° NNW
Cosmos 2251 Rocket 3.4 18:03:33 10° SSW 18:08:50 81° ESE 18:12:38 20° NNE
YAOGAN 1 2.4 18:07:02 10° SSE 18:11:17 80° ENE 18:15:33 10° NNW
Cosmos 371 Rocket 3.4 18:07:51 10° S 18:12:27 48° ESE 18:12:52 46° E
Cosmos 304 Rocket 3.8 18:08:57 10° S 18:13:31 50° ESE 18:13:56 49° E
Cosmos 841 Rocket 3.4 18:09:20 10° NNW 18:14:35 64° ENE 18:17:16 29° SE
SJ 16-02 1.2 18:10:48 10° S 18:15:04 65° ESE 18:15:42 56° ENE
SL-19 R/B 4.0 18:10:18 10° SSE 18:15:31 85° ENE 18:20:47 10° NNW
CZ-4C R/B 4.0 18:15:48 10° WNW 18:19:52 22° N 18:22:35 17° NNE
Nadezhda 4 Rocket 3.9 18:13:45 10° N 18:20:05 88° W 18:26:19 10° S
Cosmos 1862 3.4 18:18:50 10° NNW 18:22:26 64° W 18:26:02 10° S
Resurs 1-3 3.5 18:18:57 10° SSE 18:23:15 84° WSW 18:27:35 10° NNW
ATLAS 2AS CENTAUR R/B 3.0 18:17:48 10° NW 18:24:16 43° NE 18:25:35 39° ENE
COSMOS 2406 3.1 18:20:35 10° NNW 18:26:18 79° ENE 18:29:07 31° SE
Cosmos 1627 Rocket 4.4 18:22:26 10° N 18:28:32 61° ENE 18:34:37 10° SSE
Cosmos 1656 Rocket 4.0 18:23:59 10° S 18:28:33 43° SE 18:28:33 43° SE
Cosmos 2195 Rocket 4.4 18:27:37 10° N 18:33:58 81° E 18:40:19 10° SSE
Cosmos 1536 Rocket 4.2 18:30:12 10° NNW 18:34:32 54° W 18:38:49 10° S
Okean 2 Rocket 3.1 18:32:02 10° SSW 18:36:25 75° W 18:37:52 41° N
Cosmos 1190 Rocket 4.2 18:34:29 10° SSW 18:39:46 69° WNW 18:42:26 30° NNE
Cosmos 2344 3.8 18:34:41 10° NW 18:42:31 77° NE 18:47:32 34° SE
Cosmos 676 Rocket 3.9 18:37:19 10° SSW 18:42:38 82° ESE 18:43:16 69° NE
Resurs 01 Rocket 3.3 18:46:23 24° N 18:46:23 24° N 18:48:09 10° N
Meteor 2-3 Rocket 3.6 18:40:08 10° NNW 18:45:53 90° W 18:49:59 19° S
Cosmos 2297 Rocket 4.5 18:48:01 10° N 18:48:17 10° N 18:48:17 10° N
ISS -1.6 18:48:27 10° W 18:50:07 26° W 18:50:07 26° W
Cosmos 1954 Rocket 4.3 18:47:29 10° SSW 18:52:44 65° WNW 18:54:18 43° N
COSMO-SKYMED 1 3.5 18:57:48 41° NW 18:58:16 43° WNW 19:02:10 10° SW
USA 281 3.0 19:02:00 71° E 19:02:18 72° ENE 19:08:53 10° NNW
Cosmos 1943 Rocket 4.2 19:29:12 10° W 19:33:37 23° NW 19:35:40 19° NNW
Cosmos 2278 Rocket 4.2 19:38:31 10° W 19:42:51 22° NW 19:44:37 19° NNW
SJ 16-02 4.1 19:50:43 10° W 19:52:17 15° WNW 19:52:17 15° WNW
CZ-4C R/B 4.4 20:05:16 10° NW 20:07:33 19° NNW 20:07:33 19° NNW
ATLAS 2AS CENTAUR R/B 3.8 20:08:48 10° NW 20:13:01 39° WNW 20:13:01 39° WNW
